TimeCDT,TemperatureF,Dew PointF,Humidity,Sea Level PressureIn,VisibilityMPH,Wind Direction,Wind SpeedMPH,Gust SpeedMPH,PrecipitationIn,Events,Conditions,WindDirDegrees,DateUTC
12:15 AM,34.9,29.1,79,29.96,10.0,NNW,5.8,-,N/A,,Clear,340,2012-11-02 05:15:00
12:35 AM,33.8,28.8,82,29.97,10.0,North,5.8,-,N/A,,Clear,350,2012-11-02 05:35:00
12:55 AM,33.4,28.9,84,29.98,10.0,NW,3.5,-,N/A,,Clear,320,2012-11-02 05:55:00
1:15 AM,32.4,28.4,85,29.98,10.0,West,5.8,-,N/A,,Clear,280,2012-11-02 06:15:00
1:35 AM,32.0,27.7,84,29.99,10.0,West,4.6,-,N/A,,Clear,280,2012-11-02 06:35:00
1:55 AM,32.2,27.9,84,29.99,10.0,WNW,4.6,-,N/A,,Clear,300,2012-11-02 06:55:00
2:15 AM,32.2,28.2,85,30.00,10.0,NW,4.6,-,N/A,,Clear,320,2012-11-02 07:15:00
2:35 AM,31.3,27.0,84,30.00,10.0,NNW,5.8,-,N/A,,Clear,340,2012-11-02 07:35:00
2:55 AM,31.5,28.0,87,30.00,10.0,NNW,5.8,-,N/A,,Clear,340,2012-11-02 07:55:00
3:15 AM,31.8,27.7,85,30.00,10.0,NNW,6.9,-,N/A,,Clear,330,2012-11-02 08:15:00
3:35 AM,32.0,28.2,86,30.00,10.0,NW,5.8,-,N/A,,Clear,310,2012-11-02 08:35:00
3:55 AM,32.0,28.2,86,30.01,10.0,NW,6.9,-,N/A,,Clear,310,2012-11-02 08:55:00
4:15 AM,32.0,28.8,88,30.02,10.0,NW,5.8,-,N/A,,Clear,310,2012-11-02 09:15:00
4:35 AM,31.8,28.4,87,30.02,10.0,NW,4.6,-,N/A,,Clear,310,2012-11-02 09:35:00
4:55 AM,31.1,28.8,91,30.02,10.0,NW,3.5,-,N/A,,Clear,320,2012-11-02 09:55:00
5:15 AM,31.3,29.1,92,30.02,10.0,NNW,4.6,-,N/A,,Clear,330,2012-11-02 10:15:00
5:35 AM,30.2,28.4,93,30.03,10.0,NNW,5.8,-,N/A,,Clear,330,2012-11-02 10:35:00
5:55 AM,30.0,28.2,93,30.03,10.0,NNW,4.6,-,N/A,,Clear,330,2012-11-02 10:55:00
6:15 AM,29.8,27.9,92,30.04,10.0,WNW,5.8,-,N/A,,Clear,300,2012-11-02 11:15:00
6:35 AM,29.5,27.9,94,30.05,10.0,NW,3.5,-,N/A,,Clear,320,2012-11-02 11:35:00
6:55 AM,29.3,27.9,94,30.05,10.0,NNW,5.8,-,N/A,,Clear,330,2012-11-02 11:55:00
7:15 AM,28.9,27.1,93,30.05,10.0,NNW,4.6,-,N/A,,Clear,330,2012-11-02 12:15:00
7:35 AM,29.8,27.9,92,30.06,10.0,NW,4.6,-,N/A,,Clear,320,2012-11-02 12:35:00
7:55 AM,30.2,27.7,90,30.06,10.0,NNW,3.5,-,N/A,,Clear,330,2012-11-02 12:55:00
8:15 AM,30.2,27.9,91,30.07,10.0,Calm,Calm,-,N/A,,Clear,0,2012-11-02 13:15:00
8:35 AM,32.0,29.1,89,30.08,10.0,NW,4.6,-,N/A,,Clear,310,2012-11-02 13:35:00
8:55 AM,33.6,29.3,84,30.08,10.0,NW,3.5,-,N/A,,Clear,310,2012-11-02 13:55:00
9:15 AM,34.9,28.8,78,30.09,10.0,North,4.6,-,N/A,,Clear,360,2012-11-02 14:15:00
9:35 AM,35.8,28.2,74,30.09,10.0,North,6.9,-,N/A,,Clear,10,2012-11-02 14:35:00
9:55 AM,37.0,28.4,71,30.10,10.0,NNE,8.1,-,N/A,,Clear,20,2012-11-02 14:55:00
10:15 AM,37.6,28.0,68,30.10,10.0,NNE,6.9,-,N/A,,Clear,20,2012-11-02 15:15:00
10:35 AM,39.0,28.2,65,30.10,10.0,NE,6.9,-,N/A,,Clear,40,2012-11-02 15:35:00
10:55 AM,39.0,26.6,61,30.11,10.0,NE,5.8,-,N/A,,Scattered Clouds,40,2012-11-02 15:55:00
11:15 AM,40.1,26.4,58,30.11,10.0,NNE,5.8,-,N/A,,Clear,30,2012-11-02 16:15:00
11:35 AM,41.4,26.4,55,30.11,10.0,NNE,5.8,-,N/A,,Scattered Clouds,30,2012-11-02 16:35:00
11:55 AM,41.4,25.5,53,30.12,10.0,NNE,3.5,-,N/A,,Clear,30,2012-11-02 16:55:00
12:15 PM,42.4,24.8,50,30.11,10.0,North,5.8,-,N/A,,Clear,360,2012-11-02 17:15:00
12:35 PM,42.3,23.7,48,30.11,10.0,NNW,3.5,-,N/A,,Clear,340,2012-11-02 17:35:00
12:55 PM,43.2,23.7,46,30.10,10.0,NNE,6.9,-,N/A,,Clear,20,2012-11-02 17:55:00
1:15 PM,44.2,23.2,43,30.10,10.0,NNW,4.6,-,N/A,,Clear,340,2012-11-02 18:15:00
1:35 PM,44.2,22.6,42,30.10,10.0,North,5.8,-,N/A,,Clear,350,2012-11-02 18:35:00
1:55 PM,45.0,23.0,42,30.10,10.0,Calm,Calm,-,N/A,,Clear,0,2012-11-02 18:55:00
2:15 PM,44.6,23.0,43,30.09,10.0,North,4.6,-,N/A,,Clear,360,2012-11-02 19:15:00
2:35 PM,45.1,23.2,42,30.09,10.0,NNE,4.6,-,N/A,,Clear,20,2012-11-02 19:35:00
2:55 PM,45.5,23.2,41,30.09,10.0,Calm,Calm,-,N/A,,Clear,0,2012-11-02 19:55:00
3:15 PM,45.0,23.7,43,30.09,10.0,NE,3.5,-,N/A,,Clear,40,2012-11-02 20:15:00
3:35 PM,45.0,24.1,44,30.09,10.0,Calm,Calm,-,N/A,,Clear,0,2012-11-02 20:35:00
3:55 PM,45.9,23.7,42,30.09,10.0,NNW,4.6,-,N/A,,Clear,330,2012-11-02 20:55:00
4:15 PM,45.9,23.7,42,30.09,10.0,NE,5.8,-,N/A,,Clear,50,2012-11-02 21:15:00
4:35 PM,44.6,23.9,44,30.09,10.0,ENE,3.5,-,N/A,,Clear,60,2012-11-02 21:35:00
4:55 PM,42.4,24.8,50,30.10,10.0,NNE,4.6,-,N/A,,Clear,30,2012-11-02 21:55:00
5:15 PM,40.3,26.4,58,30.10,10.0,Calm,Calm,-,N/A,,Clear,0,2012-11-02 22:15:00
5:35 PM,40.8,25.5,55,30.10,10.0,NE,4.6,-,N/A,,Clear,40,2012-11-02 22:35:00
5:55 PM,36.7,26.6,67,30.10,10.0,NE,4.6,-,N/A,,Clear,40,2012-11-02 22:55:00
6:15 PM,36.5,27.1,69,30.10,10.0,Calm,Calm,-,N/A,,Clear,0,2012-11-02 23:15:00
6:35 PM,33.8,26.6,75,30.10,10.0,NE,3.5,-,N/A,,Clear,50,2012-11-02 23:35:00
6:55 PM,36.7,25.5,64,30.10,10.0,ENE,3.5,-,N/A,,Clear,70,2012-11-02 23:55:00
7:15 PM,34.2,26.6,74,30.10,10.0,Calm,Calm,-,N/A,,Clear,0,2012-11-03 00:15:00
7:35 PM,32.5,25.9,76,30.11,10.0,Calm,Calm,-,N/A,,Clear,0,2012-11-03 00:35:00
7:55 PM,31.1,25.7,80,30.10,10.0,Calm,Calm,-,N/A,,Clear,0,2012-11-03 00:55:00
8:15 PM,30.9,25.5,80,30.10,10.0,Calm,Calm,-,N/A,,Clear,0,2012-11-03 01:15:00
8:35 PM,31.3,26.4,82,30.12,10.0,West,4.6,-,N/A,,Clear,260,2012-11-03 01:35:00
8:55 PM,32.4,26.8,80,30.12,10.0,Calm,Calm,-,N/A,,Clear,0,2012-11-03 01:55:00
9:15 PM,32.0,26.8,81,30.13,10.0,Calm,Calm,-,N/A,,Clear,0,2012-11-03 02:15:00
9:35 PM,33.1,27.0,78,30.14,10.0,Calm,Calm,-,N/A,,Clear,0,2012-11-03 02:35:00
9:55 PM,32.0,26.6,80,30.14,10.0,Calm,Calm,-,N/A,,Clear,0,2012-11-03 02:55:00
10:15 PM,31.6,26.6,82,30.13,10.0,Calm,Calm,-,N/A,,Clear,0,2012-11-03 03:15:00
10:35 PM,31.6,26.6,82,30.15,10.0,Calm,Calm,-,N/A,,Clear,0,2012-11-03 03:35:00
10:55 PM,32.0,26.8,81,30.16,10.0,Calm,Calm,-,N/A,,Clear,0,2012-11-03 03:55:00
11:15 PM,32.0,26.6,80,30.17,10.0,Calm,Calm,-,N/A,,Scattered Clouds,0,2012-11-03 04:15:00
11:35 PM,30.4,26.2,85,30.16,10.0,Calm,Calm,-,N/A,,Mostly Cloudy,0,2012-11-03 04:35:00
11:55 PM,31.6,27.3,84,30.16,10.0,Calm,Calm,-,N/A,,Overcast,0,2012-11-03 04:55:00